Location: Clatteringshaws Loch
(55.0508°N, 4.2860°W)
Time: 13:31:11
(UTC+00:00)

Amateur Radio Satellites - All Passes

Search period start: 25 March 2017 13:01
Search period end: 26 March 2017 14:01
Location: Clatteringshaws Loch, 55.0508°N, 4.2860°W

Satellite Date Start Highest point End Downlink Frequencies (MHz)
Time Altitude Azimuth
RS-15 25 Mar 13:04:34 13:16:18 60° 120° (ESE) 13:28:18 29.354- 29.394
SPROUT 25 Mar 13:28:05 13:32:19 57° 291° (WNW) 13:36:31 437.525
Oscar 19 25 Mar 13:32:19 13:37:02 37° 264° (W) 13:41:48 437.125/150
Gurwin Techsat 1B 25 Mar 13:33:21 13:38:35 57° 259° (W) 13:43:52 435.225
ITAMSAT 1 25 Mar 13:36:06 13:41:01 42° 62° (ENE) 13:45:56 435.822/435.867
PCSat 25 Mar 13:37:57 13:42:25 25° 348° (NNW) 13:46:54 145.827
BUGSAT 1 25 Mar 13:43:57 13:44:01 10° 277° (W) 13:44:04 437.445
DX 1 25 Mar 13:50:04 13:54:28 71° 289° (WNW) 13:58:50 434.975-435.025
BEESAT 25 Mar 14:03:17 14:06:15 16° 87° (E) 14:09:12 436.000
50 SAT 25 Mar 14:04:44 14:07:45 27° 296° (WNW) 14:10:45 437.505
VELOX 1 25 Mar 14:08:20 14:12:07 28° 300° (WNW) 14:15:55 145.980
ITUPSAT 1 25 Mar 14:18:03 14:21:38 21° 90° (E) 14:25:11 437.325
NO-84 25 Mar 14:19:11 14:20:32 12° 222° (SW) 14:21:56 435.350 FM
AO-7 25 Mar 14:19:39 14:28:00 84° 64° (ENE) 14:36:21 .
YUBILEINY 25 Mar 14:23:50 14:25:46 11° 16° (NNE) 14:27:43 435.215
ESTCUBE 1 25 Mar 14:27:45 14:28:41 11° 314° (NW) 14:29:37 437.505/2401.250
UKube-1 25 Mar 14:33:33 14:37:38 41° 296° (WNW) 14:41:42 .
MOZHAYETS 4 25 Mar 14:34:11 14:36:39 14° 85° (E) 14:39:06
SPROUT 25 Mar 15:05:50 15:07:23 12° 311° (NW) 15:08:56 437.525
SO-50 25 Mar 15:14:24 15:18:42 38° 125° (SE) 15:22:57 436.795
ITAMSAT 1 25 Mar 15:15:37 15:20:33 40° 263° (W) 15:25:30 435.822/435.867
RS-15 25 Mar 15:16:36 15:28:52 71° 329° (NNW) 15:41:17 29.354- 29.394
CUTE-I 25 Mar 15:17:33 15:20:26 15° 44° (NE) 15:23:20 437.470
Gurwin Techsat 1B 25 Mar 15:18:13 15:19:44 11° 280° (W) 15:21:16 435.225
DOVE 4 25 Mar 15:22:42 15:25:38 16° 49° (NE) 15:28:37 437.250
PCSat 25 Mar 15:22:56 15:27:29 26° 14° (NNE) 15:32:00 145.827
DX 1 25 Mar 15:27:32 15:29:56 15° 310° (NW) 15:32:20 434.975-435.025
BEESAT 25 Mar 15:39:56 15:44:44 90° 101° (E) 15:49:30 436.000
XW-2D 25 Mar 15:47:15 15:49:02 13° 54° (NE) 15:50:48 145.860 - 145.880
NUDT-PHONESAT 25 Mar 15:52:31 15:53:55 12° 53° (NE) 15:55:19 437.300
XW-2B 25 Mar 15:52:51 15:54:53 14° 55° (NE) 15:56:54 145.730 - 145.750
ITUPSAT 1 25 Mar 15:55:12 15:59:59 71° 290° (WNW) 16:04:43 437.325
KAITUO 1B 25 Mar 15:57:30 15:59:16 13° 55° (NE) 16:01:02 145.475/437.950
KKS-1 25 Mar 16:02:20 16:05:50 22° 91° (E) 16:09:19 437.445
XW-2C 25 Mar 16:02:24 16:04:54 17° 58° (ENE) 16:07:23 145.795 - 145.815
HO-68 25 Mar 16:04:15 16:09:00 19° 36° (NE) 16:13:44 435.675
MOZHAYETS 4 25 Mar 16:09:58 16:14:34 85° 105° (ESE) 16:19:07
AO-7 25 Mar 16:14:35 16:21:43 31° 268° (W) 16:28:53 .
O/OREOS (USA 219) 25 Mar 16:19:08 16:22:24 20° 103° (ESE) 16:25:43 437.305
YUBILEINY 25 Mar 16:19:57 16:26:54 25° 48° (NE) 16:33:49 435.215
STARS 25 Mar 16:42:31 16:46:10 24° 92° (E) 16:49:47 437.465
LilacSat-2 25 Mar 16:52:44 16:56:24 46° 69° (ENE) 17:00:05 437.200
XW-2F 25 Mar 16:53:59 16:57:36 44° 68° (ENE) 17:01:13 145.980 - 146.000
CUTE-I 25 Mar 16:54:13 16:59:27 55° 66° (ENE) 17:04:43 437.470
SO-50 25 Mar 16:54:33 16:59:05 54° 326° (NW) 17:03:35 436.795
DOVE 4 25 Mar 16:57:40 17:02:24 68° 70° (ENE) 17:07:28 437.250
CUBESAT XI-V 25 Mar 16:58:09 17:02:43 52° 100° (E) 17:07:15 437.345
PCSat 25 Mar 17:06:40 17:12:02 52° 39° (NE) 17:17:21 145.827
BEESAT 25 Mar 17:18:35 17:21:57 19° 307° (NW) 17:25:17 436.000
XW-2D 25 Mar 17:18:48 17:22:38 81° 74° (ENE) 17:26:27 145.860 - 145.880
SEEDS 25 Mar 17:20:31 17:22:37 14° 52° (NE) 17:24:43 437.485
NUDT-PHONESAT 25 Mar 17:23:28 17:27:12 74° 73° (ENE) 17:30:57 437.300
CUTE 1.7 + AOD 2 25 Mar 17:23:37 17:26:36 19° 57° (ENE) 17:29:36 437.475
XW-2B 25 Mar 17:24:43 17:28:32 90° 74° (ENE) 17:32:22 145.730 - 145.750
KAITUO 1B 25 Mar 17:28:57 17:32:43 84° 74° (ENE) 17:36:29 145.475/437.950
RS-15 25 Mar 17:31:25 17:43:32 54° 1° (N) 17:55:32 29.354- 29.394
M-CUBED/EXP-1 PRIME 25 Mar 17:33:20 17:35:14 12° 91° (E) 17:37:08 437.505
ITUPSAT 1 25 Mar 17:34:12 17:37:04 16° 311° (NW) 17:39:56 437.325
XW-2C 25 Mar 17:34:52 17:38:41 72° 257° (WSW) 17:42:30 145.795 - 145.815
KKS-1 25 Mar 17:38:20 17:42:48 62° 291° (WNW) 17:47:14 437.445
MOZHAYETS 4 25 Mar 17:47:59 17:51:12 19° 306° (NW) 17:54:23
HO-68 25 Mar 17:48:27 17:55:21 54° 60° (ENE) 18:02:16 435.675
O/OREOS (USA 219) 25 Mar 17:56:46 18:01:19 74° 302° (WNW) 18:05:57 437.305
UWE-3 25 Mar 17:57:14 18:00:10 17° 53° (NE) 18:03:03 435.000/436.395/437.385
XW-2A 25 Mar 17:57:33 18:00:44 35° 67° (ENE) 18:03:56 145.665 - 145.685
YUBILEINY 25 Mar 18:16:41 18:25:27 75° 75° (ENE) 18:34:10 435.215
STARS 25 Mar 18:18:28 18:22:49 54° 293° (WNW) 18:27:08 437.465
CUBEBUG 2 25 Mar 18:26:12 18:30:32 37° 64° (ENE) 18:34:51 437.445
LilacSat-2 25 Mar 18:27:51 18:30:54 22° 268° (W) 18:33:58 437.200
XW-2F 25 Mar 18:28:54 18:31:57 23° 268° (W) 18:35:01 145.980 - 146.000
CUTE-I 25 Mar 18:35:01 18:39:47 32° 266° (W) 18:44:36 437.470
CUBESAT XI-V 25 Mar 18:35:55 18:39:53 28° 300° (WNW) 18:43:51 437.345
Oscar 11 25 Mar 18:36:12 18:39:00 17° 55° (NE) 18:41:50 .
SO-50 25 Mar 18:36:29 18:40:24 27° 349° (N) 18:44:16 436.795
DOVE 4 25 Mar 18:36:50 18:40:37 23° 272° (W) 18:44:35 437.250
ZACube-1 25 Mar 18:40:19 18:43:50 23° 58° (ENE) 18:47:19 437.345
AAUSAT CUBESAT 2 25 Mar 18:42:24 18:46:06 34° 65° (ENE) 18:49:50 437.432
PCSat 25 Mar 18:50:16 18:55:25 44° 241° (WSW) 19:00:33 145.827
SEEDS 25 Mar 18:53:29 18:57:38 74° 74° (ENE) 19:01:49 437.485
STRAND 1 25 Mar 18:54:44 18:58:59 25° 91° (E) 19:03:11 437.568
XW-2D 25 Mar 18:55:30 18:57:22 13° 273° (W) 18:59:14 145.860 - 145.880
CUTE 1.7 + AOD 2 25 Mar 18:57:48 19:02:01 73° 257° (WSW) 19:06:14 437.475
NUDT-PHONESAT 25 Mar 18:59:35 19:01:37 14° 272° (W) 19:03:40 437.300
XW-2B 25 Mar 19:01:50 19:03:20 12° 274° (W) 19:04:50 145.730 - 145.750
KAITUO 1B 25 Mar 19:05:39 19:07:18 12° 273° (W) 19:08:57 145.475/437.950
M-CUBED/EXP-1 PRIME 25 Mar 19:05:52 19:10:25 67° 109° (ESE) 19:15:05 437.505
AO-73 25 Mar 19:08:50 19:12:53 33° 63° (ENE) 19:16:53 145.935
KKS-1 25 Mar 19:16:22 19:18:33 13° 311° (NW) 19:20:43 437.445
XW-2A 25 Mar 19:30:45 19:33:36 23° 266° (W) 19:36:28 145.665 - 145.685
UWE-3 25 Mar 19:31:19 19:35:59 81° 73° (ENE) 19:40:36 435.000/436.395/437.385
HO-68 25 Mar 19:36:28 19:43:16 46° 262° (W) 19:50:07 435.675
O/OREOS (USA 219) 25 Mar 19:38:08 19:41:32 20° 326° (NW) 19:44:58 437.305
RS-15 25 Mar 19:45:39 19:58:07 72° 33° (NNE) 20:10:12 29.354- 29.394
STARS 25 Mar 19:56:38 19:58:16 12° 313° (NW) 19:59:54 437.465
CUBEBUG 2 25 Mar 20:02:39 20:07:09 41° 264° (W) 20:11:37 437.445
Oscar 11 25 Mar 20:10:17 20:14:36 88° 246° (WSW) 20:18:57 .
DELFI C3 25 Mar 20:13:16 20:16:54 37° 66° (ENE) 20:20:34 145.870
YUBILEINY 25 Mar 20:14:06 20:21:36 34° 279° (W) 20:29:06 435.215
ZACube-1 25 Mar 20:15:14 20:19:46 67° 258° (WSW) 20:24:14 437.345
AAUSAT CUBESAT 2 25 Mar 20:17:50 20:21:35 34° 264° (W) 20:25:22 437.432
SO-50 25 Mar 20:18:07 20:22:03 28° 14° (NNE) 20:25:58 436.795
SEEDS 25 Mar 20:31:11 20:33:51 16° 272° (W) 20:36:31 437.485
STRAND 1 25 Mar 20:33:30 20:38:36 64° 292° (WNW) 20:43:39 437.568
CUTE 1.7 + AOD 2 25 Mar 20:37:29 20:38:39 11° 277° (W) 20:39:49 437.475
LO-87 25 Mar 20:38:37 20:40:08 12° 54° (NE) 20:41:37 145.935 - 145.965
M-CUBED/EXP-1 PRIME 25 Mar 20:40:48 20:44:32 26° 308° (NW) 20:48:23 437.505
ESTCUBE 1 25 Mar 20:44:27 20:46:26 13° 49° (NE) 20:48:25 437.505/2401.250
AO-73 25 Mar 20:44:48 20:49:04 40° 262° (W) 20:53:18 145.935
AO-85 25 Mar 20:56:38 21:00:12 26° 122° (ESE) 21:03:37 145.980
UWE-3 25 Mar 21:09:52 21:13:00 18° 273° (W) 21:16:07 435.000/436.395/437.385
PRISM 25 Mar 21:20:56 21:24:29 26° 94° (E) 21:28:01 437.425
O/OREOS (USA 219) 25 Mar 21:22:24 21:22:49 10° 351° (N) 21:23:13 437.305
HO-68 25 Mar 21:32:15 21:33:01 10° 285° (WNW) 21:33:47 435.675
ISS 25 Mar 21:34:45 21:36:53 16° 148° (SSE) 21:39:01 437.550
TIGRISAT 25 Mar 21:37:43 21:41:14 22° 90° (E) 21:44:39 435.000
Tancredo 1 25 Mar 21:40:18 21:42:32 18° 150° (SSE) 21:44:47 437.200
UNISAT 6 25 Mar 21:47:19 21:51:11 28° 93° (E) 21:54:58 437.425
DELFI C3 25 Mar 21:48:20 21:51:47 29° 265° (W) 21:55:15 145.870
Oscar 11 25 Mar 21:49:11 21:51:26 14° 275° (W) 21:53:40 .
ZACube-1 25 Mar 21:55:36 21:56:54 11° 277° (W) 21:58:12 437.345
RS-15 25 Mar 21:58:40 22:10:32 57° 241° (WSW) 22:21:58 29.354- 29.394
SO-50 25 Mar 21:58:45 22:03:16 63° 37° (NE) 22:07:44 436.795
VELOX 1 25 Mar 22:00:37 22:03:49 20° 55° (NE) 22:07:03 145.980
LO-87 25 Mar 22:09:21 22:12:58 81° 74° (ENE) 22:16:38 145.935 - 145.965
FO-29 25 Mar 22:11:25 22:17:06 33° 91° (E) 22:22:11 435.910
STRAND 1 25 Mar 22:13:53 22:16:54 16° 313° (NW) 22:19:56 437.568
ESTCUBE 1 25 Mar 22:18:00 22:22:24 60° 69° (ENE) 22:26:50 437.505/2401.250
BEESAT 3 25 Mar 22:23:12 22:26:14 21° 119° (ESE) 22:29:18 437.485
UKube-1 25 Mar 22:25:25 22:27:31 13° 49° (NE) 22:29:37 .
AO-85 25 Mar 22:36:09 22:40:21 65° 322° (NW) 22:44:21 145.980
BEESAT 2 25 Mar 22:37:21 22:39:28 14° 114° (ESE) 22:41:35 435.950
AIST 2D 25 Mar 22:48:04 22:50:21 16° 90° (E) 22:52:37 435.315
SPROUT 25 Mar 22:52:25 22:56:27 40° 65° (ENE) 23:00:31 437.525
PRISM 25 Mar 22:55:58 22:59:57 45° 293° (WNW) 23:03:56 437.425
POLYITAN 1 25 Mar 23:00:03 23:02:40 16° 87° (E) 23:05:14 437.675
O/OREOS (USA 219) 25 Mar 23:02:41 23:04:26 12° 18° (NNE) 23:06:11 437.305
QB50P2 25 Mar 23:04:21 23:07:19 18° 89° (E) 23:10:16 145.880/145.840
ISS 25 Mar 23:09:42 23:12:47 38° 167° (SSE) 23:15:52 437.550
50 SAT 25 Mar 23:11:36 23:14:52 41° 68° (ENE) 23:18:10 437.505
TIGRISAT 25 Mar 23:13:52 23:18:19 60° 291° (WNW) 23:22:38 435.000
Tancredo 1 25 Mar 23:15:08 23:18:09 40° 170° (S) 23:21:11 437.200
DX 1 25 Mar 23:16:29 23:20:31 39° 64° (ENE) 23:24:36 434.975-435.025
DUCHIFAT 1 25 Mar 23:18:13 23:21:17 19° 90° (E) 23:24:19 145.980
UNISAT 6 25 Mar 23:23:48 23:28:08 47° 294° (WNW) 23:32:20 437.425
VELOX 1 25 Mar 23:35:24 23:39:49 77° 254° (WSW) 23:44:17 145.980
SO-50 25 Mar 23:39:32 23:43:30 31° 238° (WSW) 23:47:26 436.795
BUGSAT 1 25 Mar 23:39:47 23:41:33 12° 85° (E) 23:43:18 437.445
BEESAT 25 Mar 23:43:07 23:43:44 10° 42° (NE) 23:44:22 436.000
LO-87 25 Mar 23:45:25 23:46:58 12° 274° (W) 23:48:30 145.935 - 145.965
ESTCUBE 1 25 Mar 23:56:04 23:59:35 22° 269° (W) 00:03:08 437.505/2401.250
FO-29 25 Mar 23:56:19 00:02:39 59° 295° (WNW) 00:08:14 435.910
ITUPSAT 1 25 Mar 23:56:59 23:59:01 13° 46° (NE) 00:01:02 437.325
UKube-1 25 Mar 23:58:30 00:02:47 66° 70° (ENE) 00:07:06 .
BEESAT 3 25 Mar 23:59:29 00:03:27 74° 319° (NW) 00:07:29 437.485
NANOSAT C BR1 26 Mar 00:03:03 00:07:13 50° 100° (E) 00:11:19 145.865
EO-79 26 Mar 00:06:54 00:11:08 58° 101° (E) 00:15:19 145.935-145.965
BEESAT 2 26 Mar 00:12:35 00:16:34 76° 134° (SE) 00:20:38 435.950
RS-15 26 Mar 00:12:57 00:20:03 18° 267° (W) 00:27:03 29.354- 29.394
AO-85 26 Mar 00:17:59 00:21:23 24° 344° (NNW) 00:24:41 145.980
AIST 2D 26 Mar 00:20:28 00:23:56 54° 288° (WNW) 00:27:20 435.315
SPROUT 26 Mar 00:28:38 00:32:29 31° 265° (W) 00:36:20 437.525
POLYITAN 1 26 Mar 00:34:44 00:39:02 80° 287° (WNW) 00:43:15 437.675
QB50P2 26 Mar 00:39:20 00:43:36 69° 289° (WNW) 00:47:49 145.880/145.840
O/OREOS (USA 219) 26 Mar 00:41:22 00:45:25 29° 42° (NE) 00:49:26 437.305
50 SAT 26 Mar 00:45:25 00:48:06 21° 267° (W) 00:50:48 437.505
ISS 26 Mar 00:45:48 00:48:57 43° 187° (S) 00:52:07 437.550
Tancredo 1 26 Mar 00:50:58 00:54:00 41° 189° (S) 00:57:03 437.200
TIGRISAT 26 Mar 00:52:10 00:54:08 13° 312° (NW) 00:56:05 435.000
DX 1 26 Mar 00:52:49 00:56:47 33° 264° (W) 02:00:47 434.975-435.025
DUCHIFAT 1 26 Mar 00:53:10 00:57:23 65° 289° (WNW) 02:01:33 145.980
UNISAT 6 26 Mar 02:02:56 02:03:48 10° 315° (NW) 02:04:40 437.425
BUGSAT 1 26 Mar 02:13:23 02:17:39 81° 107° (ESE) 02:21:49 437.445
VELOX 1 26 Mar 02:15:09 02:17:04 13° 275° (W) 02:18:59 145.980
BEESAT 26 Mar 02:15:54 02:20:22 41° 64° (ENE) 02:24:52 436.000
ITUPSAT 1 26 Mar 02:31:14 02:35:53 52° 66° (ENE) 02:40:33 437.325
KKS-1 26 Mar 02:34:25 02:35:27 11° 45° (NE) 02:36:30 437.445
Oscar 19 26 Mar 02:35:47 02:40:47 46° 99° (E) 02:45:45 437.125/150
UKube-1 26 Mar 02:36:05 02:39:15 20° 270° (W) 02:42:26 .
BEESAT 3 26 Mar 02:38:15 02:41:39 26° 341° (NNW) 02:45:04 437.485
NANOSAT C BR1 26 Mar 02:39:10 02:42:43 26° 300° (WNW) 02:46:14 145.865
Gurwin Techsat 1B 26 Mar 02:42:08 02:47:00 34° 95° (E) 02:51:48 435.225
MOZHAYETS 4 26 Mar 02:42:13 02:46:15 31° 61° (ENE) 02:50:18
FO-29 26 Mar 02:42:19 02:46:25 18° 320° (NW) 02:50:14 435.910
EO-79 26 Mar 02:43:13 02:46:36 23° 301° (WNW) 02:49:58 145.935-145.965
BEESAT 2 26 Mar 02:51:06 02:54:44 31° 336° (NNW) 02:58:23 435.950
AO-85 26 Mar 02:59:48 03:02:55 21° 8° (N) 03:06:00 145.980
POLYITAN 1 26 Mar 03:11:43 03:14:10 15° 308° (NW) 03:16:37 437.675
STARS 26 Mar 03:12:52 03:14:20 12° 47° (NE) 03:15:49 437.465
AO-7 26 Mar 03:14:19 03:19:27 17° 82° (E) 03:24:35 .
QB50P2 26 Mar 03:16:34 03:18:40 14° 309° (NW) 03:20:45 145.880/145.840
O/OREOS (USA 219) 26 Mar 03:20:37 03:25:11 63° 244° (WSW) 03:29:45 437.305
ISS 26 Mar 03:22:21 03:24:58 22° 207° (SSW) 03:27:35 437.550
Tancredo 1 26 Mar 03:27:19 03:29:39 19° 209° (SSW) 03:32:00 437.200
DUCHIFAT 1 26 Mar 03:30:26 03:32:18 13° 310° (NW) 03:34:09 145.980
CUBESAT XI-V 26 Mar 03:32:30 03:35:56 21° 56° (NE) 03:39:24 437.345
BUGSAT 1 26 Mar 03:49:38 03:52:30 18° 305° (NW) 03:55:20 437.445
BEESAT 26 Mar 03:53:49 03:58:14 36° 263° (W) 04:02:40 436.000
KKS-1 26 Mar 04:06:44 04:11:02 47° 66° (ENE) 04:15:21 437.445
ITUPSAT 1 26 Mar 04:09:50 04:13:58 28° 266° (W) 04:18:08 437.325
Oscar 19 26 Mar 04:15:20 04:20:02 37° 299° (WNW) 04:24:45 437.125/150
BEESAT 3 26 Mar 04:17:17 04:20:23 21° 5° (N) 04:23:29 437.485
MOZHAYETS 4 26 Mar 04:18:53 04:23:18 46° 261° (W) 04:27:45
ITAMSAT 1 26 Mar 04:20:38 04:25:36 42° 98° (E) 04:30:32 435.822/435.867
Gurwin Techsat 1B 26 Mar 04:22:00 04:27:10 51° 295° (WNW) 04:32:17 435.225
BEESAT 2 26 Mar 04:30:28 04:33:33 20° 359° (N) 04:36:40 435.950
AO-85 26 Mar 04:40:24 04:44:12 43° 32° (NNE) 04:47:58 145.980
STARS 26 Mar 04:45:27 04:49:45 52° 67° (ENE) 04:54:06 437.465
O/OREOS (USA 219) 26 Mar 05:02:27 05:03:41 11° 264° (W) 05:04:55 437.305
AO-7 26 Mar 05:05:47 05:14:03 63° 105° (ESE) 05:22:15 .
CUBESAT XI-V 26 Mar 05:08:18 05:12:52 74° 256° (WSW) 05:17:31 437.345
M-CUBED/EXP-1 PRIME 26 Mar 05:24:34 05:28:11 39° 57° (ENE) 05:32:05 437.505
STRAND 1 26 Mar 05:40:48 05:44:07 17° 49° (NE) 05:47:25 437.568
KKS-1 26 Mar 05:43:54 05:47:47 29° 266° (W) 05:51:42 437.445
DOVE 4 26 Mar 05:50:18 05:53:09 14° 82° (E) 05:55:58 437.250
BEESAT 3 26 Mar 05:55:13 05:58:58 35° 28° (NNE) 06:02:43 437.485
Oscar 19 26 Mar 05:57:46 05:58:03 10° 321° (NW) 05:58:20 437.125/150
ITAMSAT 1 26 Mar 06:00:14 06:05:05 40° 299° (WNW) 06:09:55 435.822/435.867
Gurwin Techsat 1B 26 Mar 06:03:27 06:06:01 14° 317° (NW) 06:08:35 435.225
CUTE-I 26 Mar 06:05:42 06:07:49 12° 81° (E) 06:09:56 437.470
BEESAT 2 26 Mar 06:08:50 06:12:26 29° 23° (NNE) 06:16:01 435.950
AO-85 26 Mar 06:20:54 06:24:35 39° 233° (SW) 06:28:17 145.980
STARS 26 Mar 06:22:41 06:26:22 25° 267° (W) 06:30:07 437.465
YUBILEINY 26 Mar 06:34:13 06:39:38 18° 69° (ENE) 06:45:03 435.215
CUBESAT XI-V 26 Mar 06:49:07 06:51:07 13° 277° (W) 06:53:06 437.345
LilacSat-2 26 Mar 06:53:11 06:56:23 25° 93° (E) 06:59:35 437.200
XW-2F 26 Mar 06:53:21 06:56:26 24° 93° (E) 06:59:31 145.980 - 146.000
AO-7 26 Mar 06:58:53 07:06:39 46° 308° (NW) 07:14:25 .
M-CUBED/EXP-1 PRIME 26 Mar 06:59:20 07:02:44 30° 259° (W) 07:06:25 437.505
STRAND 1 26 Mar 07:17:23 07:22:31 71° 70° (ENE) 07:27:40 437.568
XW-2D 26 Mar 07:18:28 07:22:06 43° 99° (E) 07:25:42 145.860 - 145.880
NUDT-PHONESAT 26 Mar 07:20:56 07:24:25 37° 97° (E) 07:27:51 437.300
XW-2B 26 Mar 07:24:22 07:28:03 48° 100° (E) 07:31:41 145.730 - 145.750
DOVE 4 26 Mar 07:26:27 07:31:46 70° 102° (ESE) 07:37:04 437.250
KAITUO 1B 26 Mar 07:27:11 07:30:45 43° 99° (E) 07:34:17 145.475/437.950
BEESAT 3 26 Mar 07:32:49 07:36:48 58° 229° (SW) 07:40:44 437.485
XW-2C 26 Mar 07:34:29 07:38:15 62° 102° (ESE) 07:41:57 145.795 - 145.815
CUTE 1.7 + AOD 2 26 Mar 07:36:49 07:38:48 13° 85° (E) 07:40:46 437.475
ITAMSAT 1 26 Mar 07:41:50 07:43:18 11° 320° (NW) 07:44:46 435.822/435.867
CUTE-I 26 Mar 07:43:39 07:49:01 62° 102° (ESE) 07:54:18 437.470
XW-2A 26 Mar 07:45:55 07:47:54 15° 89° (E) 07:49:52 145.665 - 145.685
BEESAT 2 26 Mar 07:46:34 07:50:39 87° 224° (SW) 07:54:43 435.950
FO-29 26 Mar 07:49:12 07:53:00 15° 36° (NE) 07:56:39 435.910
HO-68 26 Mar 07:55:49 08:01:50 28° 90° (E) 08:07:49 435.675
TIGRISAT 26 Mar 08:10:14 08:11:18 11° 46° (NE) 08:12:22 435.000
UWE-3 26 Mar 08:16:33 08:17:15 10° 81° (E) 08:17:56 435.000/436.395/437.385
NO-84 26 Mar 08:18:46 08:20:34 15° 141° (SE) 08:22:24 435.350 FM
UNISAT 6 26 Mar 08:18:58 08:21:05 13° 49° (NE) 08:23:10 437.425
YUBILEINY 26 Mar 08:26:08 08:34:43 65° 94° (E) 08:43:19 435.215
XW-2F 26 Mar 08:27:13 08:30:46 40° 292° (WNW) 08:34:16 145.980 - 146.000
LilacSat-2 26 Mar 08:27:17 08:30:49 38° 293° (WNW) 08:34:20 437.200
CUBEBUG 2 26 Mar 08:46:18 08:50:12 28° 92° (E) 08:54:00 437.445
AO-7 26 Mar 08:52:01 08:57:36 21° 334° (NNW) 09:03:12 .
Oscar 11 26 Mar 08:52:15 08:53:36 11° 83° (E) 08:54:57 .
AAUSAT CUBESAT 2 26 Mar 08:52:31 08:55:53 23° 92° (E) 08:59:14 437.432
XW-2D 26 Mar 08:53:04 08:56:07 24° 298° (WNW) 08:59:10 145.860 - 145.880
NUDT-PHONESAT 26 Mar 08:55:07 08:58:14 26° 297° (WNW) 09:01:21 437.300
ZACube-1 26 Mar 08:57:28 09:00:01 15° 86° (E) 09:02:31 437.345
STRAND 1 26 Mar 08:58:09 09:02:13 23° 270° (W) 09:06:17 437.568
XW-2B 26 Mar 08:59:04 09:02:01 22° 299° (WNW) 09:04:56 145.730 - 145.750
KAITUO 1B 26 Mar 09:01:36 09:04:35 23° 298° (WNW) 09:07:34 145.475/437.950
DOVE 4 26 Mar 09:04:40 09:09:03 27° 302° (WNW) 09:13:27 437.250
SEEDS 26 Mar 09:05:35 09:09:42 54° 100° (E) 09:13:48 437.485
XW-2C 26 Mar 09:09:28 09:12:05 18° 302° (WNW) 09:14:42 145.795 - 145.815
CUTE 1.7 + AOD 2 26 Mar 09:11:05 09:15:19 85° 105° (ESE) 09:19:33 437.475
BEESAT 3 26 Mar 09:12:47 09:13:35 10° 249° (WSW) 09:14:23 437.485
PRISM 26 Mar 09:16:39 09:20:34 48° 67° (ENE) 09:24:33 437.425
XW-2A 26 Mar 09:17:39 09:21:02 58° 289° (WNW) 09:24:22 145.665 - 145.685
CUTE-I 26 Mar 09:24:09 09:28:47 30° 303° (WNW) 09:33:23 437.470
BEESAT 2 26 Mar 09:25:16 09:27:53 17° 245° (WSW) 09:30:29 435.950
AO-73 26 Mar 09:25:39 09:29:10 24° 92° (E) 09:32:36 145.935
FO-29 26 Mar 09:29:25 09:36:27 41° 59° (ENE) 09:42:57 435.910
TIGRISAT 26 Mar 09:42:30 09:46:58 46° 66° (ENE) 09:51:24 435.000
HO-68 26 Mar 09:43:11 09:50:23 82° 292° (WNW) 09:57:33 435.675
UWE-3 26 Mar 09:50:15 09:54:39 67° 102° (ESE) 09:58:54 435.000/436.395/437.385
UNISAT 6 26 Mar 09:52:18 09:56:55 57° 69° (ENE) 10:01:29 437.425
NO-84 26 Mar 09:54:47 09:57:37 57° 161° (SSE) 10:00:32 435.350 FM
DELFI C3 26 Mar 10:17:54 10:21:08 23° 92° (E) 10:24:20 145.870
CUBEBUG 2 26 Mar 10:22:43 10:27:03 46° 293° (WNW) 10:31:13 437.445
YUBILEINY 26 Mar 10:23:56 10:32:06 42° 298° (WNW) 10:40:17 435.215
Oscar 11 26 Mar 10:26:14 10:30:34 73° 103° (ESE) 10:34:51 .
AAUSAT CUBESAT 2 26 Mar 10:27:35 10:31:37 50° 291° (WNW) 10:35:38 437.432
NANOSAT C BR1 26 Mar 10:27:55 10:30:40 17° 54° (NE) 10:33:26 145.865
AIST 2D 26 Mar 10:29:15 10:31:53 20° 61° (ENE) 10:34:31 435.315
EO-79 26 Mar 10:31:45 10:34:47 19° 56° (NE) 10:37:49 145.935-145.965
ZACube-1 26 Mar 10:32:36 10:36:56 81° 287° (WNW) 10:41:07 437.345
PCSat 26 Mar 10:38:35 10:43:34 38° 118° (ESE) 10:48:35 145.827
SEEDS 26 Mar 10:41:46 10:45:08 24° 300° (WNW) 10:48:30 437.485
AO-7 26 Mar 10:43:27 10:47:27 15° 1° (N) 10:51:27 .
CUTE 1.7 + AOD 2 26 Mar 10:47:54 10:50:38 17° 305° (NW) 10:53:22 437.475
PRISM 26 Mar 10:52:47 10:56:07 24° 267° (W) 10:59:28 437.425
POLYITAN 1 26 Mar 10:58:47 11:02:32 30° 62° (ENE) 11:06:16 437.675
AO-73 26 Mar 11:01:32 11:05:41 49° 292° (WNW) 11:09:44 145.935
QB50P2 26 Mar 11:03:12 11:07:05 34° 63° (ENE) 11:10:58 145.880/145.840
FO-29 26 Mar 11:13:33 11:21:16 65° 258° (WSW) 11:28:24 435.910
DUCHIFAT 1 26 Mar 11:16:16 11:20:09 35° 64° (ENE) 11:24:02 145.980
TIGRISAT 26 Mar 11:19:38 11:23:48 31° 266° (W) 11:27:58 435.000
RS-15 26 Mar 11:25:50 11:31:24 15° 89° (E) 11:37:01 29.354- 29.394
UWE-3 26 Mar 11:27:23 11:30:43 21° 303° (WNW) 11:33:58 435.000/436.395/437.385
UNISAT 6 26 Mar 11:30:05 11:33:57 25° 268° (W) 11:37:48 437.425
HO-68 26 Mar 11:31:31 11:37:17 27° 315° (NW) 11:43:03 435.675
NO-84 26 Mar 11:32:10 11:35:05 89° 340° (NNW) 11:38:11 435.350 FM
BUGSAT 1 26 Mar 11:35:17 11:38:41 24° 59° (ENE) 11:42:06 437.445
DELFI C3 26 Mar 11:52:19 11:56:10 47° 292° (WNW) 12:00:00 145.870
AIST 2D 26 Mar 12:01:25 12:04:51 48° 260° (W) 12:08:19 435.315
NANOSAT C BR1 26 Mar 12:01:33 12:05:51 89° 266° (W) 12:10:09 145.865
CUBEBUG 2 26 Mar 12:02:01 12:02:36 10° 315° (NW) 12:03:10 437.445
LO-87 26 Mar 12:02:51 12:06:18 37° 98° (E) 12:09:43 145.935 - 145.965
Oscar 11 26 Mar 12:03:08 12:06:16 20° 303° (WNW) 12:09:24 .
EO-79 26 Mar 12:05:47 12:10:05 77° 257° (WSW) 12:14:24 145.935-145.965
ZACube-1 26 Mar 12:10:05 12:12:33 15° 307° (NW) 12:15:00 437.345
VELOX 1 26 Mar 12:19:35 12:21:43 13° 85° (E) 12:23:51 145.980
PCSat 26 Mar 12:21:28 12:26:51 58° 320° (NW) 12:32:15 145.827
Oscar 19 26 Mar 12:21:42 12:26:01 28° 57° (ENE) 12:30:21 437.125/150
YUBILEINY 26 Mar 12:27:13 12:32:01 15° 328° (NNW) 12:36:49 435.215
AO-7 26 Mar 12:31:34 12:37:20 21° 28° (NNE) 12:43:05 .
Gurwin Techsat 1B 26 Mar 12:32:08 12:36:17 24° 53° (NE) 12:40:27 435.225
POLYITAN 1 26 Mar 12:34:05 12:38:12 43° 261° (W) 12:42:20 437.675
QB50P2 26 Mar 12:38:51 12:42:51 37° 263° (W) 12:46:53 145.880/145.840
ESTCUBE 1 26 Mar 12:39:46 12:44:10 48° 99° (E) 12:48:31 437.505/2401.250
AO-73 26 Mar 12:40:28 12:40:58 10° 313° (NW) 12:41:28 145.935
DUCHIFAT 1 26 Mar 12:51:55 12:55:50 35° 263° (W) 12:59:48 145.980
50 SAT 26 Mar 13:02:16 13:04:40 17° 91° (E) 13:07:03 437.505
FO-29 26 Mar 13:02:42 13:07:33 18° 279° (W) 13:12:13 435.910
SPROUT 26 Mar 13:06:40 13:10:27 28° 94° (E) 13:14:10 437.525
BUGSAT 1 26 Mar 13:09:34 13:13:46 58° 259° (W) 13:17:59 437.445
NO-84 26 Mar 13:09:37 13:12:33 48° 202° (SSW) 13:15:40 435.350 FM
HO-68 26 Mar 13:20:28 13:22:46 12° 340° (NNW) 13:25:06 435.675
RS-15 26 Mar 13:29:11 13:40:33 50° 115° (ESE) 13:52:09 29.354- 29.394
DX 1 26 Mar 13:33:25 13:37:09 26° 94° (E) 13:40:51 434.975-435.025
LO-87 26 Mar 13:36:33 13:39:39 26° 297° (WNW) 13:42:44 145.935 - 145.965
NANOSAT C BR1 26 Mar 13:39:58 13:42:13 14° 274° (W) 13:44:28 145.865
EO-79 26 Mar 13:44:56 13:46:37 12° 275° (W) 13:48:18 145.935-145.965
